Location: Byszew
(52.1813°N, 19.2693°E)
Time: 02:58:43
(UTC+00:00)

Envisat - Pass Details

Date: 29 January 2022
Orbit: 764 x 765 km, 98.2° (Epoch: 28 May)

Event Time Altitude Azimuth Distance (km) Brightness Sun altitude
Rises 05:44:47 0° 4° (N) 3,244 6.1 -6.9°
Reaches altitude 10° 05:48:02 10° 342° (NNW) 2,313 5.1 -6.4°
Maximum altitude 05:50:50 15° 309° (NW) 1,976 4.5 -6.0°
Drops below altitude 10° 05:53:39 10° 275° (W) 2,306 4.9 -5.6°
Sets 05:56:52 0° 253° (WSW) 3,228 5.8 -5.2°
